Location: La Coruña
(43.3623°N, 8.4115°W)
Time: 10:48:14
(UTC+01:00)

STARLINK-1125 - Pass Details

Date: 18 January 2020
Orbit: 348 x 350 km, 53.0° (Epoch: 22 February)

Event Time Altitude Azimuth Distance (km) Brightness Sun altitude
Rises 18:54:04 0° 223° (SW) 2,144 8.1 -5.4°
Maximum altitude 18:58:55 54° 141° (SE) 432 3.0 -6.2°
Drops below altitude 10° 19:01:48 10° 62° (ENE) 1,315 4.9 -6.7°
Enters shadow 19:01:59 - 62° (ENE) 1,394 5.0 -6.7°
